Location: Dealu Mare
(46.0500°N, 22.8167°E)
Time: 23:08:57
(UTC+00:00)

Gblst 52 Del rocket - Pass Details

Date: 15 January 2026
Orbit: 805 x 1364 km, 51.5° (Epoch: 13 February)

Event Time Altitude Azimuth Distance (km) Brightness Sun altitude
Exits shadow 04:00:17 39° 316° (NW) 1,196 4.6 -21.5°
Maximum altitude 04:02:09 60° 17° (NNE) 921 4.4 -21.1°
Drops below altitude 10° 04:07:38 10° 97° (E) 2,420 7.8 -20.2°
Sets 04:10:12 0° 101° (E) 3,392 9.0 -19.8°
